Tracking 20232 objects as of 20-Jan-2020
HD Live streaming from Space Station
objects crossing your sky now

STARLINK 1060

Track STARLINK 1060 now!
10-day predictions
STARLINK 1060 is classified as:


NORAD ID: 44765
Int'l Code: 2019-074BE
Perigee: 461.5 km
Apogee: 463.2 km
Inclination: 53.0 °
Period: 93.7 minutes
Semi major axis: 6833 km
RCS: Unknown
Launch date: November 11, 2019
Source: United States (US)
Launch site: AIR FORCE EASTERN TEST RANGE (AFETR)
aabbcc
Your satellite tracking list
Your tracking list is empty




NASA's NSSDC Master Catalog

Two Line Element Set (TLE):
1 44765U 19074BE  20020.91667824 -.00073888  00000-0 -20254-2 0  9995
2 44765  53.0040 183.1855 0001273  75.8339 220.3342 15.36929756 11055
Source of the keplerian elements: AFSPC